Simultaneous Nadir Overpasses (SNOs) Predictions

Prediction of SNOs between LANDSAT-8 and NOAA-19 Satellite Orbit:

Table of predicted SNOs for the next 14.0 days since TLE Epoch: 11/21/2013
Index Date (LANDSAT-8) Time (LANDSAT-8) Lat,Lon (LANDSAT-8) SZA (LANDSAT-8 ) Date (NOAA-19) Time (NOAA-19) Lat,Lon (NOAA-19) SZA (NOAA-19 ) Distance(km) Time Diff (sec)
1 11/22/2013 09:09:25 71.25, 41.10 91.35 11/22/2013 09:09:11 71.23, 41.15 91.33 2.69 14
2 11/22/2013 09:58:59 -70.92,-151.79 88.98 11/22/2013 10:00:11 -70.90,-151.05 88.99 26.69 72
3 11/24/2013 13:53:39 71.27, -29.93 91.82 11/24/2013 13:53:21 71.27, -29.95 91.83 0.95 18
4 11/24/2013 14:43:10 -71.11, 137.44 88.34 11/24/2013 14:44:23 -71.05, 137.67 88.39 10.42 73
5 11/26/2013 18:37:53 71.26,-101.00 92.24 11/26/2013 18:37:30 71.28,-100.98 92.26 2.06 23
6 11/26/2013 19:27:23 -71.16, 66.47 87.87 11/26/2013 19:28:34 -71.16, 66.45 87.86 0.52 71
7 11/28/2013 23:22:06 71.29,-172.02 92.65 11/28/2013 23:21:39 71.30,-172.04 92.67 1.82 27
8 11/29/2013 00:11:36 -71.19, -4.55 87.45 11/29/2013 00:12:43 -71.19, -4.61 87.45 2.33 67
9 12/01/2013 04:06:19 71.29, 116.93 93.00 12/01/2013 04:05:47 71.29, 116.97 93.01 1.63 32
10 12/01/2013 04:55:49 -71.19, -75.60 87.10 12/01/2013 04:56:51 -71.18, -75.62 87.10 0.86 62
11 12/03/2013 08:50:31 71.32, 45.92 93.36 12/03/2013 08:49:56 71.34, 45.86 93.38 3.06 35
12 12/03/2013 09:40:00 -71.22,-146.61 86.74 12/03/2013 09:40:58 -71.20,-146.65 86.76 3.20 58
